Regional Weather Roundup
Issued by NWS Charleston, WV

Home | Current Version | Previous Version | Text Only | Print | Product List | Glossary Off
Versions: 1 2 3 4 5 6 7 8 9 10 11 12 13 14 15 16 17 18 19 20 21 22 23 24 25 26 27 28 29 30 31 32 33 34 35 36 37 38 39 40 41 42 43 44 45 46 47 48 49 50

000
ASUS41 KRLX 271910
RWRRLX
West Virginia Regional Weather Roundup
National Weather Service Charleston WV
200 PM EST FRI FEB 27 2015

Note: "fair" indicates few or no clouds below 12,000 feet with no
significant weather and/or obstructions to visibility.

WVZ003-272000-
Northern Panhandle of West Virginia

CITY           SKY/WX    TMP DP  RH WIND       PRES   REMARKS
WHEELING       MOSUNNY   17  -2  43 VRB5      30.50S WCI  10
$$

WVZ009-272000-
Northwest West Virginia

CITY           SKY/WX    TMP DP  RH WIND       PRES   REMARKS
PARKERSBURG    MOSUNNY   18   1  47 NW7       30.58F WCI   9
$$

WVZ006-272000-
Western West Virginia

CITY           SKY/WX    TMP DP  RH WIND       PRES   REMARKS
HUNTINGTON     CLOUDY    20   6  55 N5        30.56F
$$

WVZ015-272000-
West Central West Virginia

CITY           SKY/WX    TMP DP  RH WIND       PRES   REMARKS
CHARLESTON     PTSUNNY   22   7  52 NW10      30.53F
$$

WVZ022-031-272000-
North Central West Virginia

CITY           SKY/WX    TMP DP  RH WIND       PRES   REMARKS
CLARKSBURG     SUNNY     19   2  47 NW9       30.48S WCI   8
MORGANTOWN     PTSUNNY   19   2  47 W7        30.48F WCI  10
$$

WVZ025-035-042-045-272000-
Southern West Virginia

CITY           SKY/WX    TMP DP  RH WIND       PRES   REMARKS
BECKLEY        CLOUDY    21   8  57 NW12      30.36F WCI   9
LOGAN          CLOUDY    19   7  58 CALM      30.44S
BLUEFIELD      CLOUDY    24  10  55 W13       30.34S
LEWISBURG      SUNNY     27   8  46 NW7       30.36S
$$

WVZ047-272000-
Northern Mountains of West Virginia

CITY           SKY/WX    TMP DP  RH WIND       PRES   REMARKS
ELKINS         CLOUDY    17   6  62 W9        30.41R WCI   6
$$

WVZ052-272000-
Eastern Panhandle of West Virginia

CITY           SKY/WX    TMP DP  RH WIND       PRES   REMARKS
MARTINSBURG    SUNNY     30   7  37 W12       30.43F
PETERSBURG     SUNNY     28   7  40 W12       30.43S
$$


USA.gov is the U.S. government's official web portal to all federal, state and local government web resources and services.